This is the latest recevied weather packets stored in our database for station/object DO0SOB-11. If no packets are shown the sender has not sent any weather packets the latest 10 day(s).
| Time | Temp. | Humidity | Pressure | Rain* | Wind** | Luminosity | Snow |
|---|---|---|---|---|---|---|---|
| 1777808685 | 23.33° C | 41% | 972.8 hPa | - | - | - | - |
| 1777807785 | 23.33° C | 41% | 973 hPa | - | - | - | - |
| 1777806885 | 22.78° C | 42% | 973.1 hPa | - | - | - | - |
| 1777805985 | 21.67° C | 42% | 973.2 hPa | - | - | - | - |
| 1777805084 | 21.11° C | 46% | 973.4 hPa | - | - | - | - |
| 1777804184 | 21.11° C | 43% | 973.5 hPa | - | - | - | - |
| 1777803284 | 21.67° C | 43% | 973.5 hPa | - | - | - | - |
| 1777802384 | 21.11° C | 41% | 973.8 hPa | - | - | - | - |
| 1777801484 | 20.56° C | 58% | 973.8 hPa | - | - | - | - |
| 1777800584 | 21.67° C | 66% | 973.8 hPa | - | - | - | - |
| 1777799684 | 20.56° C | 63% | 973.9 hPa | - | - | - | - |
| 1777798784 | 20° C | 69% | 974.1 hPa | - | - | - | - |
| 1777797884 | 20° C | 75% | 974 hPa | - | - | - | - |
| 1777796984 | 20° C | 67% | 973.8 hPa | - | - | - | - |
| 1777796084 | 20° C | 72% | 974 hPa | - | - | - | - |
| 1777795184 | 17.78° C | 89% | 973.9 hPa | - | - | - | - |
| 1777794284 | 18.33° C | 85% | 973.7 hPa | - | - | - | - |
| 1777793384 | 17.22° C | 97% | 973.8 hPa | - | - | - | - |
| 1777792483 | 17.78° C | 99% | 973.8 hPa | - | - | - | - |
| 1777791583 | 16.67° C | 100% | 973.8 hPa | - | - | - | - |
| 1777790683 | 18.33° C | 88% | 973.9 hPa | - | - | - | - |
| 1777789783 | 16.67° C | 100% | 974 hPa | - | - | - | - |
| 1777788883 | 16.11° C | 100% | 973.9 hPa | - | - | - | - |
| 1777787983 | 15.56° C | 100% | 973.7 hPa | - | - | - | - |
| 1777787083 | 15.56° C | 100% | 973.7 hPa | - | - | - | - |
* Rain since midnight (hover to see other rain measurements)
** Current wind speed in m/s (hover to see current wind gust speed)